Wind_Speed
86 81 79 85 85 86 83 83 82 84 85 84 84 76 72 76 74 71 70 66 65 64 65 63 67 65 64 66 69 63 60 61 55 49 49 49 45 43 45 42 44 41 40 33
90 82 84 86 86 88 88 87 86 89 89 89 89 80 76 74 75 69 68 70 70 70 71 72 68 67 65 67 68 69 64 63 61 57 56 52 52 50 48 46 46 45 45 40
85 80 83 84 83 80 82 82 82 85 86 86 88 79 78 76 74 76 75 73 76 78 79 78 76 72 71 68 69 71 73 66 62 58 56 54 51 53 53 48 46 48 48 48
78 77 79 79 81 81 84 86 87 85 85 83 84 76 74 76 74 75 80 79 81 82 83 83 81 79 76 75 72 74 75 73 67 65 62 60 57 58 56 55 53 51 51 50
80 78 81 83 83 86 86 85 89 92 92 90 89 90 70 77 77 79 83 88 88 85 88 90 89 86 86 82 78 75 80 78 77 71 68 65 60 61 61 56 53 51 54 53
82 82 83 85 85 86 86 85 85 85 88 89 91 93 70 77 82 83 86 88 88 88 88 90 91 89 88 88 84 81 80 84 82 82 79 74 66 65 64 61 56 53 55 57
81 74 80 84 82 86 85 83 85 87 87 84 88 88 65 63 76 81 84 85 86 89 91 92 93 92 90 90 89 87 86 86 85 82 81 79 74 70 64 67 62 58 52 55
76 78 75 76 80 74 78 84 87 91 87 86 90 73 61 67 68 79 86 90 89 90 91 91 92 93 93 94 93 91 89 87 85 83 82 80 77 72 66 72 71 65 59 55
83 85 85 89 88 87 87 88 90 83 85 84 82 78 74 76 74 69 78 84 82 85 90 88 85 88 90 92 93 93 92 90 83 83 81 78 76 72 72 74 78 71 68 60
95 92 90 93 92 93 89 94 97 95 90 91 85 80 79 83 84 78 77 87 86 94 93 86 86 89 90 91 90 91 90 90 89 85 78 75 76 74 75 78 78 75 71 64
93 95 91 88 93 94 92 89 89 91 93 92 89 84 84 87 86 86 90 90 93 95 99 100 94 92 94 96 97 92 93 94 91 88 86 79 77 77 81 79 79 78 75 69
79 77 76 79 86 91 91 94 100 99 96 98 99 89 96 95 98 99 99 102 105 103 101 104 106 103 101 97 99 97 96 93 95 92 90 86 83 79 84 85 83 82 78 74
54 55 64 73 81 83 82 84 87 91 92 90 91 81 88 91 94 97 96 96 95 103 103 108 110 114 109 114 103 102 103 97 95 94 92 90 89 85 88 86 85 86 79 76
45 48 53 57 61 65 68 69 72 76 78 80 82 81 71 88 93 92 92 93 91 91 95 95 94 98 111 119 119 118 109 107 101 96 94 90 87 86 89 87 86 86 80 77
42 44 47 50 53 55 56 58 62 65 71 73 76 75 67 78 81 81 82 83 85 86 86 89 93 94 93 100 113 122 124 119 109 105 100 97 93 85 84 86 84 85 81 77
41 44 49 51 53 52 53 57 65 71 76 76 79 73 79 74 82 82 80 85 85 87 88 87 86 83 86 89 91 104 121 126 123 111 107 105 99 96 90 89 83 82 82 83
50 53 53 49 54 55 53 65 70 73 77 79 80 80 78 76 76 80 78 85 91 92 91 91 84 82 83 85 87 91 97 114 126 124 116 113 110 107 96 95 95 84 77 75
58 60 58 58 60 57 63 69 73 77 78 81 85 84 83 83 81 75 83 91 89 92 96 96 92 87 83 80 84 86 89 95 104 119 126 123 116 115 111 101 97 97 99 91
65 68 68 67 68 65 68 73 78 82 68 90 91 88 89 90 89 73 85 91 90 91 92 94 94 90 85 84 81 80 84 88 91 99 105 113 119 122 118 108 105 102 103 94
72 73 74 76 76 69 71 77 83 80 70 93 91 91 93 93 91 72 78 84 86 86 86 88 89 89 87 86 81 77 77 80 87 91 94 98 104 109 119 125 115 102 102 100
75 78 78 80 81 73 76 81 80 83 88 90 95 96 98 96 93 77 72 76 78 78 81 82 82 82 86 85 79 72 77 80 83 85 89 93 94 97 96 103 109 108 105 103
79 81 82 84 84 80 81 85 84 89 91 89 87 87 89 85 81 76 64 67 70 69 74 77 78 78 81 81 77 73 75 80 79 82 85 88 90 91 89 84 91 91 86 89
81 84 85 85 80 83 85 84 81 83 82 82 83 79 82 77 75 73 66 63 64 61 63 68 71 75 77 74 71 70 73 73 77 79 78 83 83 84 82 80 78 90 97 99
84 89 85 78 85 84 80 84 85 80 79 75 71 72 69 71 69 64 60 59 61 61 59 62 63 65 65 68 66 65 67 68 69 73 72 76 78 79 78 78 78 78 91 98
92 85 79 77 83 74 80 83 78 72 72 71 66 67 67 66 63 62 57 58 60 57 59 56 56 57 58 59 59 61 61 61 63 67 67 68 73 75 74 76 75 77 80 86
84 79 76 76 77 69 70 75 77 67 66 67 64 65 69 65 60 56 48 50 52 52 54 52 54 55 57 53 54 56 56 54 54 57 59 64 67 72 71 71 71 70 76 79
Wind_Direction
249 252 256 253 255 255 257 258 258 260 261 261 260 260 261 268 267 265 267 268 270 267 270 268 264 267 271 273 275 274 275 276 276 272 276 276 274 280 291 290 296 299 299 303
253 255 254 255 255 254 254 256 260 260 260 261 260 261 262 264 260 261 262 267 267 265 265 264 263 265 270 272 271 272 272 275 277 279 275 274 273 274 284 285 286 296 296 295
249 250 252 250 251 253 256 255 256 260 260 262 263 263 262 259 262 260 262 264 266 263 261 261 264 264 269 269 268 268 272 274 275 273 277 278 274 275 282 282 282 283 289 294
245 247 247 249 249 252 254 257 256 256 256 259 260 256 255 259 260 259 259 258 258 262 262 262 261 263 265 266 264 267 269 272 271 271 275 276 279 282 276 281 285 285 286 287
245 248 249 252 250 251 253 256 258 257 257 257 260 259 254 261 260 259 258 258 261 257 257 259 261 264 265 265 263 264 265 267 271 272 272 272 276 273 276 281 283 287 291 286
248 248 250 251 250 253 255 256 257 257 258 256 257 257 253 254 255 258 257 256 256 256 255 257 261 263 263 264 261 263 263 265 265 269 270 271 271 271 275 276 279 281 285 284
248 252 253 249 255 255 256 253 255 256 257 256 255 257 256 252 253 250 251 253 255 257 258 257 257 257 258 259 261 263 261 261 262 264 266 268 271 273 273 273 277 278 278 282
262 260 256 261 256 261 256 258 258 257 257 258 257 255 248 248 248 252 253 254 256 257 256 257 257 258 258 259 262 263 262 260 260 260 261 264 268 272 272 270 271 275 275 273
262 263 261 264 264 267 267 266 267 263 258 255 256 253 249 250 256 247 246 251 253 258 258 259 261 262 262 262 262 261 261 258 255 258 257 260 262 266 269 269 271 275 273 269
259 259 261 261 262 264 264 266 267 268 266 266 263 261 259 258 260 257 251 244 247 247 250 253 260 262 263 261 262 262 260 258 255 252 254 256 258 262 264 265 269 271 271 269
258 260 259 258 259 261 261 260 263 266 266 265 266 266 266 269 267 263 262 252 247 247 247 246 252 254 256 259 260 261 261 258 255 255 253 250 254 258 261 261 264 266 268 270
247 249 254 257 257 259 258 257 258 261 263 266 270 267 268 270 268 270 267 258 254 253 251 251 251 254 254 255 254 257 260 260 259 256 253 253 252 254 260 261 263 264 266 267
249 249 251 254 254 255 257 258 260 264 265 265 265 263 261 262 267 267 266 263 263 261 264 261 255 257 255 259 251 255 256 257 258 257 256 255 254 254 256 259 261 262 263 266
257 256 256 257 260 262 263 264 265 266 266 264 265 261 264 266 266 267 267 266 265 263 262 262 259 256 257 256 256 259 251 257 257 256 255 254 254 253 252 256 257 259 263 267
261 262 262 261 261 263 267 271 273 273 272 270 270 270 269 267 269 266 265 267 267 266 262 261 259 259 259 257 254 254 257 257 254 255 254 253 251 250 254 254 254 256 260 263
270 267 263 263 264 265 268 274 273 273 274 274 273 273 271 268 271 272 273 273 271 270 264 262 263 260 259 258 257 254 254 254 256 254 252 247 250 250 255 254 254 256 260 260
269 269 268 268 269 270 275 271 272 272 273 276 277 277 275 276 274 274 271 270 270 270 270 270 267 262 261 259 257 255 254 253 254 254 254 249 247 250 249 256 257 255 259 260
276 275 276 274 275 277 275 274 274 274 277 280 278 277 276 273 269 271 273 268 268 268 269 269 268 266 263 259 257 255 254 254 253 253 254 254 252 248 251 252 251 255 260 262
280 281 281 279 276 276 281 280 279 275 280 280 279 281 280 278 276 276 275 272 270 268 267 267 267 267 265 263 260 255 255 253 253 253 253 254 255 254 252 250 252 254 255 257
281 280 281 281 280 282 283 281 278 283 282 280 282 280 280 279 276 272 270 269 268 268 267 266 266 266 264 261 258 257 254 251 252 251 252 253 254 255 254 254 252 250 253 255
281 281 283 283 284 284 282 281 282 282 280 281 281 282 282 284 284 283 277 273 270 266 265 263 262 262 262 261 258 254 251 250 248 248 249 249 250 252 253 252 251 252 254 256
282 282 282 282 283 284 282 282 279 277 279 285 286 287 285 285 285 283 277 273 270 268 265 262 261 261 259 258 258 254 249 248 247 246 245 247 249 249 251 252 249 247 239 240
283 283 282 281 285 284 282 285 284 282 282 283 287 286 286 284 284 284 281 277 274 268 264 262 261 258 258 258 256 252 251 249 247 244 242 245 245 248 248 249 246 242 242 240
284 280 282 287 286 286 289 286 285 286 289 289 286 284 284 283 283 283 284 280 275 273 268 265 263 262 261 261 258 255 251 249 246 247 242 242 244 245 246 246 245 243 238 240
280 283 286 286 283 289 289 288 288 290 290 289 290 289 288 287 287 285 283 279 277 276 271 262 259 259 259 257 256 254 252 249 246 244 244 240 242 243 244 245 243 242 242 240
283 286 286 285 288 291 288 290 291 294 292 292 291 290 291 290 287 285 283 280 276 273 269 264 260 258 257 256 254 251 248 247 246 244 242 241 239 240 241 242 244 242 240 240
Height
10712 10721 10733 10730 10730 10736 10740 10745 10751 10750 10748 10752 10755 10778 10784 10781 10791 10788 10788 10788 10790 10790 10787 10784 10779 10776 10779 10777 10777 10778 10788 10788 10795 10794 10794 10795 10792 10791 10790 10787 10785 10786 10785 10782
10698 10714 10710 10710 10716 10720 10727 10730 10733 10729 10729 10735 10740 10762 10769 10770 10772 10771 10770 10769 10771 10772 10769 10764 10767 10770 10772 10772 10768 10762 10767 10774 10779 10781 10780 10783 10783 10781 10781 10780 10778 10776 10775 10773
10681 10693 10690 10695 10699 10703 10706 10712 10713 10708 10709 10717 10724 10749 10752 10754 10757 10755 10755 10755 10749 10746 10748 10749 10753 10757 10761 10760 10761 10756 10750 10759 10762 10765 10770 10770 10770 10772 10770 10769 10770 10768 10765 10764
10664 10670 10673 10676 10681 10683 10686 10689 10694 10691 10694 10704 10710 10731 10740 10734 10738 10740 10734 10731 10726 10728 10732 10734 10735 10736 10741 10745 10749 10748 10744 10743 10746 10747 10752 10755 10757 10758 10756 10758 10759 10759 10756 10754
10644 10650 10656 10658 10662 10662 10668 10671 10671 10673 10677 10686 10695 10699 10743 10718 10718 10713 10708 10702 10707 10712 10711 10711 10715 10718 10721 10725 10730 10736 10733 10733 10731 10732 10735 10738 10743 10741 10740 10745 10747 10748 10747 10745
10626 10632 10636 10638 10642 10644 10650 10652 10652 10652 10655 10669 10670 10674 10724 10703 10700 10693 10685 10686 10686 10688 10692 10692 10692 10697 10702 10704 10709 10715 10720 10717 10718 10718 10717 10722 10725 10723 10725 10727 10732 10734 10735 10733
10602 10611 10617 10622 10626 10628 10629 10632 10631 10631 10634 10649 10646 10658 10696 10684 10677 10672 10663 10663 10666 10666 10669 10673 10674 10676 10679 10681 10684 10691 10696 10700 10700 10704 10705 10704 10707 10708 10712 10708 10712 10715 10720 10719
10586 10591 10599 10606 10608 10607 10608 10611 10614 10614 10617 10625 10626 10654 10666 10655 10653 10648 10653 10650 10649 10647 10648 10650 10650 10652 10656 10658 10661 10665 10672 10680 10680 10685 10689 10692 10694 10694 10697 10692 10692 10699 10702 10702
10566 10572 10575 10582 10584 10586 10588 10589 10591 10594 10597 10598 10610 10628 10635 10626 10622 10632 10632 10630 10628 10628 10625 10629 10629 10629 10631 10633 10638 10643 10647 10653 10658 10663 10669 10675 10679 10679 10679 10677 10673 10683 10682 10684
10549 10551 10555 10558 10562 10565 10566 10568 10568 10570 10572 10576 10587 10598 10602 10598 10601 10608 10609 10607 10606 10605 10604 10606 10609 10609 10609 10611 10613 10616 10622 10628 10635 10643 10647 10657 10660 10661 10662 10661 10661 10662 10662 10668
10524 10529 10534 10536 10539 10542 10544 10545 10546 10545 10549 10547 10554 10572 10569 10571 10575 10578 10577 10580 10578 10578 10580 10581 10585 10587 10587 10587 10587 10590 10593 10601 10611 10620 10628 10635 10639 10642 10641 10645 10643 10644 10645 10652
10508 10511 10512 10515 10517 10520 10521 10522 10521 10519 10521 10523 10526 10552 10545 10542 10537 10543 10547 10543 10548 10554 10558 10563 10562 10564 10563 10564 10564 10565 10568 10574 10581 10595 10605 10613 10619 10622 10620 10623 10624 10625 10632 10635
10494 10499 10496 10497 10499 10501 10501 10501 10498 10500 10501 10505 10501 10526 10517 10507 10508 10507 10513 10521 10526 10526 10525 10528 10534 10533 10535 10535 10541 10544 10545 10550 10557 10567 10578 10588 10596 10601 10598 10603 10607 10606 10613 10617
10479 10484 10483 10484 10484 10482 10484 10485 10482 10480 10480 10479 10482 10490 10500 10483 10484 10491 10491 10490 10495 10497 10495 10496 10496 10499 10500 10503 10510 10513 10521 10525 10533 10541 10550 10560 10568 10577 10578 10583 10588 10586 10592 10601
10470 10472 10472 10472 10471 10471 10472 10468 10464 10461 10454 10456 10453 10464 10478 10467 10464 10466 10466 10465 10462 10462 10463 10464 10465 10468 10472 10474 10477 10482 10486 10494 10502 10511 10521 10532 10540 10552 10556 10561 10566 10569 10575 10583
10459 10458 10457 10458 10457 10460 10461 10459 10450 10440 10432 10435 10433 10449 10439 10455 10442 10441 10445 10436 10435 10431 10428 10434 10437 10443 10445 10445 10445 10452 10455 10460 10467 10476 10487 10500 10508 10523 10535 10538 10544 10550 10556 10564
10442 10441 10443 10449 10445 10447 10454 10437 10429 10423 10418 10414 10413 10416 10420 10423 10425 10420 10420 10409 10403 10404 10404 10402 10407 10411 10414 10416 10419 10422 10425 10429 10434 10444 10452 10464 10479 10491 10507 10515 10519 10527 10534 10542
10424 10423 10427 10430 10430 10435 10427 10417 10409 10403 10404 10396 10386 10387 10390 10389 10394 10403 10388 10376 10380 10376 10371 10370 10374 10379 10382 10388 10389 10394 10399 10402 10406 10412 10421 10429 10443 10460 10474 10487 10492 10499 10507 10516
10405 10402 10403 10406 10406 10414 10408 10394 10386 10378 10406 10359 10355 10361 10358 10356 10356 10388 10361 10349 10348 10346 10343 10342 10341 10347 10353 10356 10360 10368 10374 10375 10382 10382 10390 10398 10407 10424 10439 10454 10466 10474 10481 10492
10384 10383 10383 10380 10381 10396 10389 10378 10360 10363 10378 10332 10335 10328 10322 10316 10315 10349 10334 10320 10315 10315 10314 10312 10314 10318 10320 10322 10329 10339 10345 10350 10353 10357 10364 10369 10377 10388 10404 10417 10439 10446 10458 10465
10365 10361 10362 10356 10356 10374 10366 10353 10346 10335 10325 10322 10307 10302 10291 10289 10289 10310 10310 10297 10289 10290 10284 10282 10285 10288 10287 10290 10301 10314 10316 10318 10323 10332 10338 10342 10350 10359 10370 10386 10405 10422 10437 10442
10344 10342 10340 10335 10336 10340 10338 10327 10319 10302 10296 10299 10295 10285 10271 10270 10268 10266 10277 10268 10263 10264 10260 10257 10259 10260 10257 10261 10272 10283 10287 10286 10297 10304 10312 10318 10324 10335 10347 10360 10377 10399 10413 10415
10328 10320 10315 10313 10320 10311 10302 10297 10292 10280 10278 10279 10267 10265 10248 10247 10244 10239 10244 10242 10234 10238 10237 10233 10234 10234 10234 10239 10248 10256 10258 10264 10271 10279 10289 10294 10303 10311 10324 10336 10352 10373 10384 10393
10304 10287 10295 10303 10284 10281 10284 10268 10257 10258 10252 10249 10244 10236 10234 10224 10219 10218 10220 10219 10212 10210 10214 10210 10212 10215 10219 10218 10225 10230 10232 10240 10248 10254 10265 10274 10281 10289 10300 10312 10328 10342 10362 10369
10266 10276 10280 10277 10259 10269 10253 10237 10239 10243 10231 10222 10222 10213 10206 10199 10199 10194 10200 10195 10187 10187 10186 10189 10189 10192 10195 10198 10201 10204 10211 10219 10225 10233 10244 10255 10261 10269 10279 10289 10303 10318 10332 10346
10254 10260 10257 10250 10243 10250 10239 10221 10207 10217 10210 10201 10198 10193 10180 10176 10176 10175 10178 10172 10168 10167 10165 10167 10169 10173 10174 10180 10183 10185 10191 10199 10207 10215 10226 10233 10242 10250 10260 10271 10282 10295 10307 10317